Погода в Санта-Круз-дель-Сейбо

Доминиканская Республика     18°46′01″N   69°02′32″W
темп.,
°C
ветер,
м/с
пор.,
м/с
влажн.,
%
обл.,
%
осадки,
мм/ч
давл.,
гПа
погр.,
м
7 мая, пт
пт723:00+21всв38910 0.0 1018216
02:00+21всв23932 0.0 101651
05:00+21всв26911 0.0 1016134
08:00+25в45671 0.0 1017863
11:00+31в45380 0.0 10171938
14:00+33в653124 0.0 10142508
17:00+30вюв453822 0.0 10141691
20:00+22в36720 0.0 1016134
8 мая, сб
сб823:00+21всв22870 0.0 101836
02:00+20ссв11920 0.0 101711
05:00+20ссв11925 0.0 101611
08:00+25юв247133 0.0 1018530
11:00+31вюв45428 0.0 10172000
14:00+34вюв553267 0.0 10142783
17:00+31в654035 0.0 10141924
20:00+23всв37805 0.0 1017183
9 мая, вс
вс923:00+22всв249399 0.0 101998
02:00+21св119345 0.0 101714
05:00+21в11935 0.1 101713
08:00+25всв257858 0.8 1019486
11:00+31в55424 0.0 10181961
14:00+33всв86374 0.0 10162360
17:00+30всв87525 0.0 10161374
20:00+23всв510884 0.6 1018438
10 мая, пн
пн1023:00+23всв4986100 0.1 1019396
02:00+23в3788100 0.1 1018218
05:00+22св2493100 0.5 1017105
08:00+25в4777100 2.2 1019548
11:00+29в6657100 0.0 10181232
14:00+31в6747100 0.3 10161955
17:00+29в6655100 0.1 10161425
20:00+23всв4888100 2.2 1018238
11 мая, вт
вт1123:00+23в3888100 1.1 1019309
02:00+22всв2689100 1.5 1017145
05:00+22всв1287100 0.0 101734
08:00+24в4972100 0.0 1018602
11:00+30в5646100 0.0 10181563
14:00+30в7745100 0.0 10171664
17:00+28в6751100 0.0 10161247
20:00+24всв487998 0.0 1017441